Location: Unspecified
(43.6561°N, 0.0000°E)
Time: 16:59:45
(UTC+00:00)

COSMOS 2565 - Visible Passes

Search period start: 04 April 2026 00:00
Search period end: 14 April 2026 00:00
Orbit: 901 x 910 km, 67.1° (Epoch: 29 March)

Date Brightness Start Highest point End Pass type
(mag) Time Alt. Az. Time Alt. Az. Time Alt. Az.
9 Apr ? 04:46:00 10° ESE 04:48:00 12° E 04:50:01 10° E visible
10 Apr ? 04:48:10 10° SE 04:51:50 17° ESE 04:55:32 10° ENE visible
11 Apr ? 04:51:08 10° SSE 04:55:44 23° ESE 05:00:20 10° NE visible
